Location: ?????? ?????
(48.3034°N, 37.9306°E)
Time: 09:39:22
(UTC+00:00)

Daily predictions for brighter satellites

Satellite Brightness Start Highest point End
(mag) Time Altitude Azimuth Time Altitude Azimuth Time Altitude Azimuth
Lacrosse 5 2.4 17:53:12 10° WNW 17:58:07 53° SW 18:03:02 10° SSE
COSMOS 2406 4.5 17:54:03 10° NW 17:59:23 40° WSW 18:04:40 10° S
STARLINK-1082 4.1 17:56:04 10° WNW 18:00:06 51° SW 18:04:07 10° SE
Meteor 1-4 Rocket 3.4 17:56:47 10° SSW 18:00:10 52° WNW 18:03:35 10° N
CZ-2C R/B 3.0 17:55:31 10° NNE 18:01:10 80° WNW 18:06:46 10° SSW
NOSS 2-2 (E) 4.4 17:59:25 10° SSE 18:02:12 22° ESE 18:05:14 10° ENE
STARLINK-1114 4.0 17:58:16 10° WNW 18:02:25 65° NNE 18:06:32 10° ESE
STARLINK-1203 3.6 17:58:39 10° WSW 18:02:51 80° SSE 18:07:04 10° ENE
STARLINK-1216 3.6 17:59:15 10° WSW 18:03:23 80° SSE 18:07:33 10° ENE
STARLINK-1100 4.2 18:01:02 10° WNW 18:05:03 48° SW 18:09:02 10° SE
Meteor 2-4 Rocket 3.7 18:00:28 10° S 18:05:50 88° W 18:11:15 10° NNE
Cosmos 1975 4.4 18:02:29 10° NNW 18:06:12 35° W 18:09:52 10° SSW
ATLAS CENTAUR R/B 3.7 18:05:43 10° NW 18:06:46 12° NNW 18:07:43 10° N
STARLINK-1130 (DARKSAT) 3.9 18:03:16 10° WNW 18:07:24 68° NNE 18:11:32 10° ESE
Intercosmos 24 3.6 18:04:07 10° N 18:07:42 76° E 18:11:30 10° SSE
ISS -2.5 18:04:54 10° W 18:07:55 31° SW 18:10:56 10° SSE
STARLINK-1237 3.6 18:04:13 10° WSW 18:08:22 84° SSE 18:12:32 10° ENE
STARLINK-1083 4.3 18:06:04 10° WNW 18:10:02 44° SW 18:13:58 10° SE
Cosmos 1674 Rocket 4.0 18:06:37 10° SSE 18:10:44 42° E 18:14:55 10° NNE
Cosmos 1833 Rocket 3.5 18:05:56 10° NW 18:11:19 48° WSW 18:16:40 10° S
STARLINK-1084 3.8 18:08:15 10° WNW 18:12:24 71° NNE 18:16:32 10° ESE
Cosmos 2297 4.1 18:07:21 10° S 18:12:39 42° ESE 18:18:00 10° NE
STARLINK-1202 3.6 18:09:12 10° WSW 18:13:21 89° SSE 18:17:31 10° ENE
Cosmos 1943 Rocket 3.5 18:09:49 10° SE 18:13:43 20° E 18:17:40 10° NE
Cosmos 1378 Rocket 4.3 18:09:44 10° SSE 18:13:44 35° E 18:17:44 10° NNE
STARLINK-1125 4.4 18:11:04 10° WNW 18:14:59 41° SW 18:18:53 10° SSE
STARLINK-1098 3.8 18:13:14 10° WNW 18:17:23 74° NNE 18:21:32 10° ESE
Cosmos 2082 Rocket 2.5 18:12:13 10° NNW 18:17:55 68° WSW 18:23:33 10° SSE
STARLINK-1109 4.5 18:16:05 10° WNW 18:19:56 38° SW 18:23:40 11° SSE
Cosmos 1452 Rocket 3.6 18:15:37 10° SSW 18:20:54 89° WNW 18:26:14 10° NNE
STARLINK-1123 3.7 18:18:11 10° WNW 18:22:22 78° NNE 18:26:30 10° ESE
Cosmos 332 Rocket 3.8 18:17:57 10° SSW 18:22:51 77° ESE 18:27:45 10° NNE
STARLINK-1246 3.7 18:19:11 10° WSW 18:23:20 82° NNW 18:27:29 10° ENE
IGS 5A 3.5 18:19:14 10° SSE 18:23:21 67° ENE 18:27:29 10° N
Landsat 7 3.9 18:19:14 10° SSE 18:23:57 70° ENE 18:28:43 10° N
NOSS 2-2 (C) 4.0 18:23:32 10° S 18:26:40 29° ESE 18:30:03 10° ENE
STARLINK-1097 3.7 18:23:12 10° WNW 18:27:22 82° NNE 18:31:30 10° ESE
STARLINK-1224 3.8 18:24:09 10° WSW 18:28:18 78° NNW 18:32:27 10° ENE
Cosmos 2369 Rocket 3.6 18:25:39 11° SE 18:29:21 20° E 18:33:17 10° NE
ATLAS 2AS CENTAUR R/B 4.3 18:25:53 10° SE 18:30:43 18° ESE 18:35:40 10° ENE
ATLAS 3B CENTAUR R/B 4.4 18:21:38 10° SW 18:31:25 21° S 18:36:45 12° SE
Cosmos 1461 2.9 18:27:31 10° SSW 18:31:38 71° SE 18:36:01 10° NE
NOSS 3-2 (A) 4.3 18:25:03 10° NW 18:32:18 62° NE 18:40:25 10° ESE
STARLINK-1099 3.6 18:28:10 10° WNW 18:32:21 87° NNE 18:36:16 11° ESE
STARLINK-1225 3.9 18:29:09 10° WSW 18:33:18 74° NNW 18:37:27 10° ENE
NOSS 8 (F) 4.2 18:31:07 10° SW 18:34:20 85° NW 18:37:23 10° NE
SAR-Lupe-2 3.5 18:32:55 10° NNE 18:36:32 68° ESE 18:40:06 10° S
STARLINK-1104 3.6 18:33:08 10° WNW 18:37:18 89° SW 18:41:02 13° ESE
STARLINK-1230 3.9 18:34:09 10° WSW 18:38:16 71° NNW 18:42:25 10° ENE
SPOT 5 3.4 18:35:04 13° SE 18:39:43 55° ENE 18:44:57 10° N
CZ-4B DEB 4.4 18:38:27 14° SSE 18:41:12 69° ENE 18:44:32 10° N
STARLINK-1212 4.5 18:39:15 10° WNW 18:42:09 34° N 18:45:02 10° ENE
STARLINK-1144 3.6 18:38:08 10° WNW 18:42:17 84° SSW 18:45:50 14° ESE
STARLINK-1105 4.5 18:39:43 10° WNW 18:42:37 34° N 18:45:30 10° ENE
STARLINK-1243 4.0 18:39:09 10° WSW 18:43:16 68° NNW 18:47:25 10° ENE
STARLINK-1247 4.5 18:40:36 10° WNW 18:43:30 34° N 18:46:25 10° ENE
STARLINK-1227 4.5 18:41:06 10° WNW 18:44:00 34° N 18:46:53 10° ENE
ERS-1 Rocket 3.1 18:39:41 13° SSE 18:44:09 67° ENE 18:49:10 10° N
USA 238 DEB 4.1 18:37:03 10° NW 18:44:12 68° NE 18:51:00 13° SE
USA 238 4.1 18:37:09 10° NW 18:44:18 67° NE 18:51:07 13° SE
STARLINK-1226 4.4 18:41:57 10° WNW 18:44:52 34° N 18:47:46 10° ENE
STARLINK-1215 4.4 18:42:51 10° WNW 18:45:46 35° N 18:48:40 10° ENE
Cosmos 1066 Rocket 4.1 18:41:48 10° S 18:47:10 73° E 18:52:31 10° NNE
STARLINK-1103 3.6 18:43:06 10° WNW 18:47:15 79° SSW 18:50:36 15° ESE
STARLINK-1217 4.4 18:44:40 10° WNW 18:47:35 35° N 18:50:30 10° ENE
STARLINK-1236 4.1 18:44:08 10° WSW 18:48:16 65° NNW 18:52:24 10° ENE
STARLINK-1229 4.4 18:45:35 10° WNW 18:48:30 35° N 18:51:25 10° ENE
STARLINK-1270 4.4 18:46:29 10° WNW 18:49:25 35° N 18:52:19 10° ENE
Nadezhda 4 Rocket 4.0 18:44:51 10° S 18:50:56 73° E 18:57:03 10° NNE
STARLINK-1189 4.4 18:48:16 10° WNW 18:51:12 35° N 18:54:07 10° ENE
STARLINK-1188 4.4 18:49:11 10° WNW 18:52:07 36° N 18:55:03 10° ENE
TSX-5 4.4 18:46:33 10° SSW 18:52:07 81° WNW 18:56:25 10° NNE
STARLINK-1101 3.6 18:48:05 10° WNW 18:52:14 75° SSW 18:55:23 17° SE
Okean 2 4.2 18:49:52 17° SSE 18:52:31 34° E 18:56:18 10° NNE
Cosmos 2278 Rocket 3.9 18:47:22 10° WSW 18:52:36 37° NW 18:57:52 10° NNE
USA 245 3.5 18:50:18 11° S 18:52:58 39° WSW 18:55:25 10° NNW
STARLINK-1187 4.3 18:50:16 10° WNW 18:53:11 37° N 18:56:06 10° E
STARLINK-1191 4.4 18:51:38 10° WNW 18:54:33 36° N 18:57:28 10° ENE
STARLINK-1221 4.3 18:52:35 10° WNW 18:55:31 36° N 18:58:25 10° E
STARLINK-1222 4.3 18:53:27 10° WNW 18:56:22 36° N 18:59:17 10° E
Resurs 01 Rocket 3.6 18:53:07 10° SSW 18:56:45 24° W 19:00:24 10° NW
Okean 1 Rocket 3.2 18:52:24 10° NNW 18:56:53 79° W 19:00:42 14° S
STARLINK-1102 3.6 18:53:04 10° WNW 18:57:13 70° SSW 19:00:10 18° SE
STARLINK-1214 4.3 18:54:20 10° WNW 18:57:16 36° N 19:00:11 10° E
STARLINK-1269 4.3 18:54:09 10° W 18:58:15 59° NNW 19:02:21 10° ENE
Cosmos 1470 4.5 18:56:07 10° NNE 18:59:04 20° ENE 19:01:09 14° ESE
Cosmos 1805 3.3 18:55:11 10° N 18:59:07 70° E 19:01:50 19° SSE
STARLINK-1228 4.2 18:57:03 10° WNW 19:00:26 45° NNE 19:03:49 10° E
STARLINK-1111 3.7 18:58:03 10° WNW 19:02:10 65° SSW 19:04:56 20° SE
Cosmos 1455 Rocket 3.9 18:58:30 10° N 19:02:33 37° ENE 19:05:10 19° SE
STARLINK-1200 4.3 18:59:08 10° W 19:03:14 57° NNW 19:07:20 10° ENE
STARLINK-1235 4.1 19:01:34 10° WNW 19:04:40 42° NNE 19:07:47 10° E
SL-8 R/B 3.9 19:00:13 10° W 19:04:56 57° SSW 19:08:20 18° SE
NOSS 8 (H) 4.5 19:02:22 10° SW 19:05:29 68° NW 19:08:33 10° NE
STARLINK-1073 3.7 19:03:03 10° WNW 19:07:09 61° SSW 19:09:44 21° SE
Cosmos 1110 Rocket 4.0 19:02:43 10° SSW 19:07:55 88° WNW 19:13:08 10° NNE
STARLINK-1192 4.4 19:04:10 10° W 19:08:14 55° NNW 19:12:19 10° ENE
Terra 1.9 19:05:29 19° SSE 19:08:55 70° ENE 19:13:41 10° N
Spot 2 Rocket 4.5 19:04:16 10° SSW 19:09:00 41° W 19:13:48 10° NNW
SPOT 1/Viking Rocket 4.0 19:04:39 12° S 19:09:22 57° W 19:14:28 10° NNW
BREEZE-M DEB (TANK) 4.2 19:08:18 10° SSW 19:11:31 35° SE 19:20:12 10° ENE
STARLINK-1121 3.8 19:08:02 10° WNW 19:12:07 57° SSW 19:14:30 23° SE
SL-4 R/B 3.2 19:08:30 10° SSW 19:12:35 29° SE 19:16:46 10° E
STARLINK-1244 4.5 19:09:09 10° W 19:13:13 53° NNW 19:17:18 10° ENE
CARTOSAT-1 3.7 19:10:42 17° S 19:13:58 69° WSW 19:18:18 10° NNW
Cosmos 1842 3.7 19:13:35 23° SSE 19:15:37 43° E 19:19:20 10° NNE
STARLINK-1106 3.9 19:13:03 10° WNW 19:17:06 53° SW 19:19:18 24° SSE
Abrixas rocket 3.2 19:17:30 10° W 19:19:59 25° SSW 19:20:22 24° SSW
STARLINK-1112 4.0 19:18:01 10° WNW 19:22:01 49° SW 19:24:04 26° SSE
STARLINK-1234 3.7 19:19:16 10° WNW 19:22:30 52° NNE 19:25:08 14° E
Cosmos 1331 Rocket 4.2 19:19:39 10° SSW 19:24:48 72° WNW 19:30:01 10° NNE
STARLINK-1128 4.1 19:23:00 10° WNW 19:26:59 45° SW 19:28:50 27° SSE
USA 215 4.0 19:21:38 10° E 19:27:55 51° NNE 19:34:13 10° NW
SWAS 4.5 19:23:36 10° NNW 19:27:56 78° WSW 19:30:18 26° SSE
STARLINK-1209 3.6 19:25:06 10° WNW 19:28:21 57° NNE 19:30:41 17° E
COSMOS 2455 4.2 19:26:39 18° SE 19:28:21 20° ESE 19:32:38 10° ENE
STARLINK-1113 4.2 19:28:01 10° WNW 19:31:57 42° SW 19:33:38 28° SSE
Cosmos 1733 3.3 19:28:42 10° NNW 19:32:31 72° W 19:34:33 26° S
Cosmos 1486 Rocket 4.1 19:29:23 10° NNW 19:34:43 75° ENE 19:37:53 25° SSE
Cosmos 1302 Rocket 4.0 19:30:04 13° SSW 19:34:48 78° ESE 19:40:08 10° NNE
NOSS 2-2 (D) 3.6 19:31:25 10° SW 19:34:58 64° NW 19:39:04 10° NE
Cosmos 1092 Rocket 4.0 19:30:54 13° S 19:36:24 83° W 19:42:36 10° N
STARLINK-1119 4.3 19:33:03 10° WNW 19:36:55 39° SW 19:38:26 28° S
CENTAUR R/B 3.3 19:29:07 10° NW 19:37:06 79° NE 19:43:59 18° SE
Cosmos 1378 4.1 19:35:06 12° SSW 19:38:19 44° WNW 19:41:55 10° N
Cosmos 1544 Rocket 3.7 19:35:05 10° N 19:39:24 63° ENE 19:41:31 29° SSE
Lacrosse 5 4.3 19:39:31 10° WSW 19:40:05 10° WSW 19:40:38 10° SW
ATLAS 3B R/B 3.5 19:33:39 10° NW 19:40:10 48° NE 19:46:44 11° ESE
Cosmos 1271 Rocket 3.5 19:39:15 29° SE 19:40:29 37° E 19:44:08 10° NNE
STARLINK-1114 4.4 19:38:02 10° WNW 19:41:51 36° SW 19:43:12 28° S
NOSS 3-2 (C) 4.1 19:34:34 10° NW 19:42:04 90° ENE 19:48:12 21° SE
Cosmos 1242 Rocket 2.7 19:41:27 34° SSE 19:42:47 56° E 19:46:25 10° NNE
MTI 3.7 19:41:50 10° N 19:45:00 77° WNW 19:46:21 31° SSW
STARLINK-60 3.1 19:47:58 45° SE 19:47:58 45° SE 19:50:54 10° ENE
Cosmos 1707 3.4 19:49:26 31° SE 19:50:33 39° E 19:54:12 10° NNE
NOSS 3-4 (A) 3.8 19:49:11 23° S 19:52:21 42° ESE 19:58:13 10° NE
NOSS 3-4 (C) 3.8 19:49:19 24° S 19:52:27 42° ESE 19:58:19 10° NE
Cosmos 1867 3.8 19:48:31 10° NW 19:53:58 65° NE 19:57:28 22° SE
EXPRESS MD2 4.0 19:50:41 10° W 19:54:30 84° NNW 20:02:32 10° ENE
SL-27 R/B 2.9 19:51:12 10° NNW 19:54:43 53° WSW 19:55:55 34° SSW
ALOS 2 4.1 19:53:00 17° ESE 19:55:17 27° ENE 19:58:58 10° N
Cosmos 1943 Rocket 2.4 19:51:19 10° SW 19:56:51 72° WNW 20:02:29 10° NNE
Cosmos 1726 3.3 19:53:47 10° N 19:57:10 32° ENE 19:58:20 26° ESE
Cosmos 1992 Rocket 4.2 19:56:02 28° SSE 19:58:29 51° ESE 20:03:31 10° NNE
COSMOS 2487 3.6 19:59:13 10° N 20:02:24 33° ENE 20:03:33 26° E
SeaSat 1 2.9 19:58:18 10° NE 20:03:01 43° ESE 20:04:48 31° SSE
BREEZE-M DEB 3.2 20:01:42 10° WSW 20:04:38 83° SSE 20:13:31 10° ENE
STARLINK-1232 4.5 20:02:19 10° WNW 20:06:22 50° NNE 20:10:25 10° E
EO 1 Del DPAF 3.3 20:04:42 10° NNE 20:08:28 59° ESE 20:09:29 42° SSE
S3M 4.0 20:03:52 10° N 20:10:03 73° E 20:13:29 28° SSE
Meteor 2-10 4.0 20:05:21 10° N 20:10:23 66° ENE 20:12:42 31° SSE
Cosmos 1975 Rocket 4.1 20:07:29 15° SW 20:10:49 42° WNW 20:15:02 10° N
STARLINK-1208 4.4 20:07:17 10° WNW 20:11:21 52° NNE 20:15:25 10° E
Aureole 3 Rocket 4.4 20:05:32 10° NNW 20:11:42 78° W 20:17:11 23° S
Cosmos 2369 Rocket 2.3 20:07:22 11° SW 20:12:46 75° WNW 20:18:26 10° NNE
Cosmos 292 Rocket 3.8 20:09:53 21° SSW 20:13:09 79° WNW 20:18:03 10° NNE
STARLINK-1271 4.3 20:12:18 10° WNW 20:16:23 54° NNE 20:20:27 10° E
RESURS DK-1 4.1 20:18:05 18° ESE 20:18:05 18° ESE 20:20:42 10° ENE
NOSS 7 (A) 4.5 20:17:25 52° SW 20:18:03 88° SE 20:20:59 10° NE
STARLINK-1212 2.7 20:15:06 10° WNW 20:18:14 88° NE 20:18:39 63° ESE
STARLINK-1105 2.7 20:15:35 10° WNW 20:18:41 88° NNE 20:19:05 65° ESE
STARLINK-1247 2.7 20:16:27 10° WNW 20:19:35 89° NE 20:19:59 65° ESE
STARLINK-1227 2.7 20:16:56 10° WNW 20:20:04 90° ESE 20:20:25 67° ESE
ATLAS 2AS CENTAUR R/B 3.0 20:13:12 13° SSW 20:20:29 71° SE 20:28:24 10° NE
STARLINK-1226 2.7 20:17:48 10° WNW 20:20:55 89° SSW 20:21:16 68° ESE
STARLINK-1154 4.3 20:17:17 10° WNW 20:21:22 55° NNE 20:25:25 10° E
STARLINK-1215 2.7 20:18:41 10° WNW 20:21:49 88° SW 20:22:09 69° ESE
Aureole 3 3.7 20:18:57 10° N 20:21:57 34° ENE 20:22:18 33° E
Cosmos 1553 Rocket 4.1 20:17:18 10° NNW 20:23:34 70° W 20:27:04 27° S
STARLINK-1217 2.7 20:20:31 10° WNW 20:23:38 85° SSW 20:23:54 73° SE
Thor Agena Rocket 3.5 20:18:24 10° NNE 20:23:44 88° ESE 20:26:36 28° SSW
ATLAS CENTAUR R/B 1.7 20:23:28 41° SSE 20:24:23 49° ESE 20:28:24 10° NE
STARLINK-1229 2.7 20:21:25 10° WNW 20:24:33 84° SSW 20:24:46 75° SE
STARLINK-1270 2.7 20:22:19 10° WNW 20:25:27 83° SSW 20:25:38 76° SE
Cosmos 1340 Rocket 2.9 20:21:38 10° N 20:25:42 66° ENE 20:26:55 42° SE
STARLINK-1197 4.2 20:22:15 10° WNW 20:26:21 58° NNE 20:30:11 11° E
Cosmos 1656 Rocket 3.6 20:23:31 26° SSW 20:26:47 78° ESE 20:32:22 10° NNE
STARLINK-1189 2.7 20:24:06 10° WNW 20:27:14 81° SSW 20:27:21 78° SSE
Cosmos 1025 Rocket 3.0 20:26:06 35° SSW 20:27:51 78° W 20:32:10 10° N
STARLINK-1188 2.7 20:25:01 10° WNW 20:28:09 80° SSW 20:28:14 78° S
STARLINK-1187 2.8 20:26:06 10° WNW 20:29:05 70° SW 20:29:05 70° SW
Cosmos 2292 Rocket 3.4 20:29:59 44° SE 20:30:28 48° E 20:33:36 10° NNE
STARLINK-1191 2.7 20:27:28 10° WNW 20:30:32 76° SW 20:30:32 76° SW
Cosmos 1908 4.2 20:27:39 10° N 20:31:14 37° ENE 20:32:14 31° ESE
STARLINK-1198 4.1 20:27:13 10° WNW 20:31:20 60° NNE 20:34:58 13° E
STARLINK-1221 2.7 20:28:25 10° WNW 20:31:27 75° SW 20:31:27 75° SW
STARLINK-1222 2.7 20:29:16 10° WNW 20:32:16 73° SW 20:32:16 73° SW
STARLINK-1214 2.8 20:30:10 10° WNW 20:33:08 71° SW 20:33:08 71° SW
APEX 4.5 20:27:34 12° SW 20:33:32 71° WNW 20:38:47 10° NNE
Cosmos 1655 Rocket 4.0 20:30:06 28° S 20:33:37 89° E 20:39:56 10° N
Cosmos 1953 2.2 20:29:54 10° N 20:33:54 85° W 20:35:00 47° S
Cosmos 1470 3.8 20:31:41 10° NNW 20:35:14 35° W 20:36:30 27° SW
Cosmos 968 Rocket 4.1 20:30:33 10° NW 20:35:27 45° WSW 20:37:31 29° SSW
STARLINK-1199 4.0 20:32:13 10° WNW 20:36:21 62° NNE 20:39:46 14° E
STARLINK-1228 3.3 20:34:18 10° WNW 20:37:42 55° SW 20:37:42 55° SW
Cosmos 1777 Rocket 4.5 20:35:12 10° NNW 20:40:21 53° ENE 20:43:05 26° SE
STARLINK-1235 3.4 20:37:54 10° WNW 20:40:37 47° WSW 20:40:37 47° WSW
STARLINK-1210 3.9 20:37:12 10° WNW 20:41:20 65° NNE 20:44:31 16° E
KORONAS-FOTON 4.4 20:42:17 37° ESE 20:42:51 40° E 20:46:29 10° NNE
Meteor 2-15 4.4 20:37:52 10° N 20:44:03 82° E 20:47:04 32° SSE
STARLINK-1219 3.9 20:42:10 10° WNW 20:46:18 68° NNE 20:49:18 18° ESE
Terra 4.0 20:44:22 10° SW 20:47:11 16° W 20:50:04 10° NW
SL-4 R/B 2.5 20:50:27 30° NNW 20:50:27 30° NNW 20:51:45 10° NNW
ATLAS CENTAUR R/B 3.3 20:48:21 10° NNW 20:50:01 20° NNE 20:52:24 10° E
Cosmos 2228 3.3 20:46:19 10° N 20:50:31 57° ENE 20:51:46 40° SE
In-Cosmos 22 4.0 20:48:30 35° S 20:50:50 88° ESE 20:56:10 10° NNE
Cosmos 1726 Rocket 4.1 20:46:48 10° N 20:51:01 48° ENE 20:52:25 34° SE
STARLINK-1211 3.8 20:47:10 10° WNW 20:51:19 72° NNE 20:54:05 20° ESE
SL-4 R/B 2.3 20:47:09 10° WSW 20:52:00 89° SE 20:56:51 10° ENE
Cosmos 2266 Rocket 3.9 20:49:10 31° S 20:52:16 90° W 20:58:21 10° N
STARLINK-52 3.3 20:54:06 51° E 20:54:06 51° E 20:56:40 10° ENE
Cosmos 921 Rocket 4.2 20:55:05 25° ESE 20:55:42 26° E 20:59:21 10° NE
STARLINK-1245 3.7 20:52:08 10° WNW 20:56:17 75° NNE 20:58:51 22° ESE
Cosmos 1300 4.3 20:54:09 10° NNE 20:57:22 25° ENE 20:58:37 21° ESE
STARLINK-1234 4.4 20:55:44 10° WNW 20:57:43 27° W 20:57:43 27° W
STARLINK-1233 3.6 20:57:05 10° WNW 21:01:15 79° NNE 21:03:37 25° ESE
Meteor 2-15 Rocket 4.4 20:57:45 10° N 21:03:57 89° W 21:06:51 34° S
STARLINK-1204 3.6 21:02:05 10° WNW 21:06:15 83° NNE 21:08:24 27° ESE
SJ 16-02 3.5 21:03:20 10° N 21:06:42 21° NE 21:10:03 10° ESE
USA 215 3.2 21:05:39 18° SE 21:10:44 80° SW 21:17:20 10° NW
STARLINK-1238 3.5 21:07:05 10° WNW 21:11:15 88° NNE 21:13:13 30° ESE
Helios 1B rocket 3.9 21:09:36 10° NE 21:13:03 25° E 21:13:50 23° ESE
COSMOS 2455 2.9 21:09:44 23° SW 21:13:36 81° NW 21:19:40 10° NNE
Cosmos 1674 2.6 21:13:31 57° SSW 21:14:13 79° W 21:18:02 10° N
STARLINK-1201 3.5 21:12:03 10° WNW 21:16:13 88° SSW 21:17:58 34° ESE
Cosmos 2219 3.9 21:10:54 10° NNW 21:16:26 50° NE 21:20:24 18° SE
STARLINK-1377 4.4 21:17:37 32° ESE 21:17:37 32° ESE 21:20:14 10° ENE
BREEZE-M R/B 4.0 21:15:12 25° SSW 21:18:34 43° SSE 21:22:29 10° E
STARLINK-1353 4.2 21:20:52 35° ESE 21:20:52 35° ESE 21:23:38 10° ENE
Cosmos 2297 Rocket 3.1 21:15:22 10° NNW 21:20:48 45° NE 21:25:14 15° ESE
STARLINK-1206 3.5 21:17:03 10° WNW 21:21:12 83° SSW 21:22:46 37° SE
STARLINK-1375 4.1 21:24:08 38° ESE 21:24:08 38° ESE 21:27:03 10° ENE
STARLINK-60 4.0 21:20:53 10° W 21:23:58 44° NNW 21:27:03 10° ENE
Timation 2 Rocket 3.9 21:18:40 10° NNW 21:25:01 79° WSW 21:27:58 33° SSE
Helios 1A 3.0 21:24:59 49° S 21:26:00 72° WSW 21:30:11 10° NNW
STARLINK-1205 3.5 21:22:01 10° WNW 21:26:10 78° SSW 21:27:32 41° SE
STARLINK-1350 3.9 21:27:23 42° ESE 21:27:23 42° ESE 21:30:28 10° ENE
STARLINK-1352 4.0 21:28:04 38° ESE 21:28:04 38° ESE 21:30:49 10° ENE
CENTAUR R/B 4.0 21:20:22 10° NW 21:27:28 33° WSW 21:31:08 24° SSW
Cosmos 1174 4.5 21:26:35 28° W 21:27:53 43° NW 21:31:37 10° NNE
STARLINK-1237 4.5 21:24:15 10° WNW 21:28:18 51° NNE 21:32:22 10° E
PSLV R/B 4.5 21:24:45 10° NNE 21:28:57 37° E 21:30:06 31° SE
Lacrosse 4 Rocket 3.8 21:26:35 10° N 21:30:00 22° NE 21:33:21 10° E
ATLAS 3B R/B 3.0 21:24:25 10° NW 21:30:58 51° WSW 21:33:57 32° S
STARLINK-1218 3.5 21:27:01 10° WNW 21:31:10 73° SSW 21:32:20 45° SE
ALOS 2 3.5 21:30:24 32° SW 21:31:28 37° W 21:35:34 10° NNW
Cosmos 1726 4.0 21:29:25 10° NW 21:32:10 20° W 21:32:50 19° WSW
STARLINK-1202 4.4 21:29:14 10° WNW 21:33:19 53° NNE 21:37:23 10° E
Cosmos 2058 Rocket 3.0 21:28:53 10° N 21:33:21 84° ENE 21:34:42 45° SSE
STARLINK-1368 3.6 21:34:00 49° SE 21:34:00 49° SE 21:37:23 10° ENE
Meteor 2-5 Rocket 3.6 21:31:44 36° S 21:34:07 89° WNW 21:39:48 10° NNE
STARLINK-1254 3.5 21:32:00 10° WNW 21:36:08 69° SSW 21:37:06 48° SSE
STARLINK-1369 3.5 21:37:19 53° SE 21:37:19 53° SE 21:40:52 10° ENE
COSMOS 2487 4.4 21:34:48 10° NW 21:37:03 18° W 21:37:03 18° W
Meteor 2-21 4.4 21:36:52 34° S 21:39:46 87° E 21:46:01 10° N
Meteor 1-29 4.4 21:37:03 10° NE 21:39:55 25° E 21:40:09 25° ESE
SeaSat 1 3.8 21:35:58 10° NNE 21:40:26 35° NW 21:44:35 12° WSW
STARLINK-1372 3.4 21:40:39 57° SE 21:40:39 57° SE 21:44:21 10° ENE
STARLINK-1231 3.5 21:36:59 10° WNW 21:41:05 64° SSW 21:41:52 51° SSE
SL-16 R/B 4.3 21:36:07 10° ESE 21:41:06 26° ENE 21:46:06 10° N
NOSS 3-4 (A) 4.3 21:37:20 10° WSW 21:43:09 49° NW 21:49:28 10° NE
NOSS 3-4 (C) 4.3 21:37:25 10° WSW 21:43:15 49° NW 21:49:34 10° NE
STARLINK-1246 4.2 21:39:13 10° WNW 21:43:19 57° NNE 21:47:24 10° E
Cosmos 1606 Rocket 4.3 21:39:24 10° NNW 21:43:26 39° W 21:44:29 34° SW
STARLINK-1378 3.3 21:43:59 60° SSE 21:44:05 60° SSE 21:47:50 10° ENE
SL-14 R/B 3.1 21:43:45 57° S 21:44:28 82° E 21:48:20 10° NNE
STARLINK-1232 3.6 21:41:58 10° WNW 21:46:04 60° SSW 21:46:40 53° S
STARLINK-1379 3.3 21:47:21 62° S 21:47:35 64° SSE 21:51:21 10° ENE
FALCON 9 DEB 3.3 21:46:54 39° W 21:48:00 71° NNW 21:51:28 10° ENE
STARLINK-1224 4.2 21:44:12 10° WNW 21:48:18 59° NNE 21:52:24 10° E
Cosmos 1656 4.5 21:46:28 29° SSE 21:48:29 39° ESE 21:53:39 10° NE
STARLINK-1329 3.3 21:48:42 62° S 21:49:00 65° SSE 21:52:47 10° ENE
STARLINK-1208 3.6 21:46:57 10° WNW 21:51:00 56° SW 21:51:25 53° S
STARLINK-1362 3.3 21:52:07 61° SSW 21:52:34 69° SSE 21:56:22 10° ENE
Cosmos 1697 Rocket 4.2 21:51:04 19° SE 21:53:17 24° ESE 21:57:46 10° NE
STARLINK-1225 4.1 21:49:11 10° WNW 21:53:19 62° NNE 21:57:25 10° E
STARLINK-29 3.9 21:51:41 18° W 21:53:49 47° NNW 21:56:56 10° ENE
RESURS DK-1 2.9 21:53:56 32° WSW 21:55:33 54° WNW 21:59:39 10° NNE
STARLINK-1271 3.7 21:51:58 10° WNW 21:56:00 52° SW 21:56:14 51° SSW
STARLINK-1373 3.3 21:55:32 58° SSW 21:56:07 72° SSE 21:59:57 10° ENE
BREEZE-M DEB (TANK) 2.2 21:50:21 10° W 21:56:11 78° N 21:58:36 10° E
BREEZE-M DEB (TANK) 3.5 21:53:19 10° W 21:56:42 47° SSW 22:02:52 10° SE
STARLINK-1365 3.3 21:56:34 56° SW 21:57:16 75° SSE 22:01:07 10° ENE
Cosmos 2227 Rocket 2.4 21:52:07 10° NNW 21:57:49 70° ENE 22:01:43 21° SE
STARLINK-1230 4.0 21:54:10 10° WNW 21:58:17 64° NNE 22:02:24 10° ESE
Cosmos 2084 3.7 21:57:06 32° WSW 21:59:06 72° NW 22:03:35 10° NE
Cosmos 1812 Rocket 4.3 21:55:22 10° N 21:59:43 48° ENE 22:01:47 27° SE
STARLINK-1390 3.2 21:59:01 55° SW 21:59:43 76° SSE 22:03:33 10° ENE
STARLINK-1154 3.8 21:56:57 10° WNW 22:00:58 48° SW 22:01:00 48° SSW
Okean 1-7 Rocket 3.9 22:00:13 38° SW 22:01:43 60° WNW 22:06:14 10° N
Cosmos 1626 2.4 22:01:28 47° SW 22:02:11 58° WNW 22:05:53 10° N
CZ-4 R/B 3.7 21:58:06 10° NNE 22:02:55 88° ESE 22:04:39 40° SSW
STARLINK-1243 3.9 21:59:09 10° WNW 22:03:17 67° NNE 22:07:25 10° ESE
ATLAS CENTAUR R/B 3.2 21:59:45 10° W 22:03:28 28° NW 22:07:00 10° NNE
STARLINK-1197 3.9 22:01:56 10° WNW 22:05:46 44° SW 22:05:46 44° SW
SL-08 ROCKET BODY 4.4 22:03:05 31° SSE 22:05:55 68° E 22:11:44 10° NNE
STARLINK-1236 3.8 22:04:07 10° WNW 22:08:17 70° NNE 22:12:25 10° ESE
Meteor 2-21 Rocket 4.5 22:05:57 32° SSW 22:09:01 75° W 22:15:15 10° N
STARLINK-1198 4.1 22:06:56 10° WNW 22:10:32 41° SW 22:10:32 41° SW
Cosmos 1602 Rocket 3.8 22:10:15 38° SSE 22:11:41 59° E 22:15:57 10° NNE
BREEZE M DEB (TANK) 4.3 22:14:01 17° ESE 22:14:01 17° ESE 22:15:01 10° ESE
ATLAS 2AS CENTAUR R/B 4.1 22:04:29 10° WSW 22:12:05 44° NNW 22:19:31 10° NE
STARLINK-1199 4.2 22:11:57 10° WNW 22:15:21 37° WSW 22:15:21 37° WSW
STARLINK-1269 3.7 22:14:05 10° WNW 22:18:15 78° NNE 22:22:24 10° ESE
Nadezhda 1 Rocket 4.0 22:13:18 10° N 22:19:31 81° W 22:22:56 29° S
STARLINK-1210 4.4 22:16:58 10° WNW 22:20:07 33° WSW 22:20:07 33° WSW
FALCON 9 R/B 3.6 22:19:35 28° S 22:21:01 30° SSE 22:33:26 10° ESE
STARLINK-1200 3.6 22:19:03 10° WNW 22:23:13 82° NNE 22:27:22 10° ESE
ATLAS 5 CENTAUR R/B 3.9 22:24:26 10° WNW 22:25:36 12° NNW 22:26:37 10° N
Cosmos 1356 Rocket 3.7 22:22:08 10° NNW 22:26:14 53° W 22:27:22 40° SSW
Cosmos 1763 Rocket 3.8 22:25:32 31° SSE 22:27:43 53° ESE 22:32:39 10° NNE
STARLINK-1192 3.6 22:24:03 10° WNW 22:28:13 86° NNE 22:32:22 10° ESE
STARLINK-52 4.4 22:26:43 10° W 22:29:46 38° N 22:32:48 10° ENE
SL-4 R/B 3.0 22:27:15 10° W 22:32:03 57° N 22:36:44 10° ENE
STARLINK-1320 3.4 22:31:42 31° W 22:32:56 57° NNW 22:36:01 10° ENE
Cosmos 1300 3.9 22:29:45 10° NNW 22:32:59 27° W 22:33:33 25° WSW
STARLINK-1244 3.5 22:29:01 10° WNW 22:33:11 89° SSW 22:37:20 10° ESE
STARLINK-1322 3.4 22:32:00 31° W 22:33:14 57° NNW 22:36:20 10° ENE
STARLINK-1324 3.4 22:32:21 30° W 22:33:36 57° NNW 22:36:42 10° ENE
Cosmos 921 Rocket 4.2 22:31:52 23° WSW 22:33:51 34° WNW 22:37:53 10° N
STARLINK-1294 3.4 22:32:38 30° W 22:33:54 56° NNW 22:37:01 10° ENE
STARLINK-1261 3.4 22:32:57 30° W 22:34:15 56° NNW 22:37:20 10° ENE
ERBS 3.3 22:31:14 10° NW 22:34:28 47° NNE 22:37:42 10° ESE
STARLINK-1325 3.4 22:33:19 30° W 22:34:36 56° NNW 22:37:41 10° ENE
STARLINK-1338 3.6 22:32:46 25° WSW 22:34:50 70° NNW 22:38:37 10° ENE
STARLINK-1333 3.4 22:33:40 29° W 22:34:58 56° NNW 22:38:04 10° ENE
Spot 1 4.3 22:32:36 30° SSE 22:35:03 86° WSW 22:40:07 10° NNW
STARLINK-1334 3.4 22:33:58 29° W 22:35:17 55° NNW 22:38:22 10° ENE
STARLINK-1326 3.5 22:34:18 29° W 22:35:38 55° NNW 22:38:43 10° ENE
STARLINK-1323 3.5 22:34:36 29° W 22:35:57 55° NNW 22:39:01 10° ENE
STARLINK-1349 3.5 22:34:57 28° W 22:36:19 55° NNW 22:39:23 10° ENE
STARLINK-1336 3.5 22:35:16 28° W 22:36:38 55° NNW 22:39:44 10° ENE
STARLINK-1331 3.5 22:35:35 28° W 22:36:58 54° NNW 22:40:03 10° ENE
STARLINK-1344 3.5 22:35:54 28° W 22:37:18 54° NNW 22:40:23 10° ENE
STARLINK-1343 3.5 22:36:14 27° W 22:37:38 54° NNW 22:40:44 10° ENE
STARLINK-1346 3.5 22:36:30 26° W 22:37:59 54° NNW 22:41:06 10° ENE
STARLINK-1138 3.5 22:34:00 10° WNW 22:38:10 85° SSW 22:42:19 10° ESE
STARLINK-1328 3.5 22:36:54 27° W 22:38:20 54° NNW 22:41:25 10° ENE
CZ-4C R/B 2.3 22:36:20 32° S 22:38:33 56° ESE 22:44:22 10° NE
STARLINK-1354 3.5 22:37:13 27° W 22:38:40 53° NNW 22:41:45 10° ENE
STARLINK-1347 3.5 22:37:33 26° W 22:39:00 53° NNW 22:42:05 10° ENE
STARLINK-1357 3.5 22:37:53 26° W 22:39:21 53° NNW 22:42:26 10° ENE
STARLINK-1335 3.6 22:38:12 26° W 22:39:41 53° NNW 22:42:46 10° ENE
STARLINK-1327 3.6 22:38:31 26° W 22:40:01 53° NNW 22:43:06 10° ENE
STARLINK-1340 3.6 22:38:51 25° W 22:40:23 52° NNW 22:43:26 10° ENE
Cosmos 1437 4.2 22:40:11 23° W 22:40:36 23° WNW 22:43:06 10° NNW
STARLINK-1356 3.6 22:39:10 25° W 22:40:42 52° NNW 22:43:46 10° ENE
STARLINK-1345 3.6 22:39:28 25° W 22:41:01 52° NNW 22:44:05 10° ENE
STARLINK-1355 3.6 22:39:47 24° W 22:41:21 52° NNW 22:44:25 10° ENE
STARLINK-1371 3.7 22:39:09 22° W 22:41:28 65° NNW 22:45:13 10° ENE
STARLINK-1321 3.6 22:40:09 24° W 22:41:44 52° NNW 22:44:48 10° ENE
STARLINK-1358 3.6 22:40:29 24° W 22:42:04 51° NNW 22:45:08 10° ENE
STARLINK-1332 3.6 22:40:48 24° W 22:42:23 51° NNW 22:45:28 10° ENE
STARLINK-1348 3.6 22:41:05 24° W 22:42:41 51° NNW 22:45:46 10° ENE
Resurs 1-4 Rocket 3.0 22:37:46 10° NNE 22:42:48 42° E 22:46:05 20° SSE
STARLINK-1330 3.6 22:41:27 23° W 22:43:04 51° NNW 22:46:09 10° ENE
STARLINK-1143 3.5 22:38:58 10° WNW 22:43:07 80° SSW 22:47:16 10° ESE
STARLINK-1363 3.6 22:41:46 23° W 22:43:25 51° NNW 22:46:29 10° ENE
STARLINK-1337 3.6 22:42:07 23° W 22:43:46 50° NNW 22:46:49 10° ENE
STARLINK-1342 3.7 22:42:25 23° W 22:44:05 50° NNW 22:47:09 10° ENE
Meteor 2-1 Rocket 4.3 22:38:52 10° NNW 22:44:20 64° W 22:47:12 28° SSW
STARLINK-1364 3.7 22:42:45 23° W 22:44:26 50° NNW 22:47:30 10° ENE
STARLINK-1376 3.7 22:43:04 22° W 22:44:46 50° NNW 22:47:49 10° ENE
STARLINK-1341 3.7 22:42:21 20° W 22:44:48 63° NNW 22:48:33 10° ENE
STARLINK-1360 3.7 22:43:24 22° W 22:45:07 50° NNW 22:48:10 10° ENE
STARLINK-1361 3.7 22:43:43 22° W 22:45:27 50° NNW 22:48:30 10° ENE
Cosmos 1703 3.9 22:43:53 28° SSE 22:45:35 48° E 22:49:24 10° NNE
SJ 16-02 1.5 22:41:17 10° NNW 22:45:37 53° WSW 22:47:11 35° SSW
STARLINK-1367 3.7 22:44:00 22° W 22:45:46 50° NNW 22:48:52 10° ENE
STARLINK-1366 3.7 22:44:23 22° W 22:46:08 49° NNW 22:49:11 10° ENE
Cosmos 2369 4.0 22:43:44 27° S 22:46:40 57° ESE 22:52:13 10° NE
STARLINK-1339 3.7 22:45:37 20° W 22:47:57 60° NNW 22:51:32 10° ENE
STARLINK-1241 3.5 22:43:59 10° WNW 22:48:08 75° SSW 22:52:16 10° SE
STARLINK-1374 3.8 22:45:33 19° W 22:48:08 61° NNW 22:51:54 10° ENE
Helios 1B rocket 3.5 22:44:37 10° N 22:48:23 34° WNW 22:50:09 23° WSW
Cosmos 1980 Rocket 3.2 22:45:27 20° SSE 22:48:39 35° ESE 22:53:43 10° NE
STARLINK-43 4.1 22:50:02 33° SSE 22:50:26 34° SE 22:53:49 10° ENE
Cosmos 1758 Rocket 3.6 22:49:14 31° S 22:51:14 74° E 22:55:39 10° NNE
MOZ.5/SAFIR/RUBIN 5/SL-8 3.7 22:48:36 24° SSE 22:51:25 84° ENE 22:56:05 10° NNW
GP-B 3.9 22:47:45 10° NNE 22:52:04 47° E 22:54:57 19° SSE
STARLINK-1239 3.5 22:48:58 10° WNW 22:53:06 71° SSW 22:57:13 10° SE
USA 215 4.1 22:52:57 24° SSW 22:54:23 26° SW 22:59:44 10° WNW
STARLINK-1377 3.9 22:52:00 16° W 22:54:54 57° NNW 22:58:39 10° ENE
CZ-2D R/B 2.6 22:51:26 10° NNE 22:56:33 52° E 22:59:51 21° S
NOSS 7 (E) 4.3 22:55:46 44° SSW 22:56:42 72° SE 22:59:47 10° NE
STARLINK-1240 3.5 22:53:56 10° WNW 22:58:03 66° SSW 23:02:09 10° SE
GEOS 3 Rocket 3.6 22:53:06 10° SE 22:58:18 83° SW 23:03:39 10° NW
STARLINK-1353 4.0 22:55:17 15° W 22:58:19 56° NNW 23:02:03 10° ENE
Cosmos 1745 Rocket 4.4 22:55:32 24° SW 22:59:04 49° WNW 23:05:02 10° N
Cosmos 2219 4.1 22:55:29 10° NW 23:00:21 30° WSW 23:02:17 24° SW
Cosmos 1400 Rocket 3.8 22:57:07 10° N 23:01:08 47° ENE 23:04:37 13° SSE
STARLINK-1375 4.0 22:58:34 14° W 23:01:44 54° NNW 23:05:28 10° ENE
STARLINK-1216 3.5 22:58:54 10° WNW 23:03:01 61° SSW 23:07:06 10° SE
STARLINK-1203 3.6 22:59:00 10° WNW 23:03:09 61° SSW 23:07:18 10° SE
Cosmos 2297 Rocket 2.9 22:59:40 10° NW 23:04:44 34° WSW 23:07:00 25° SSW
STARLINK-1352 4.0 23:01:56 13° W 23:05:00 51° NNW 23:08:34 10° ENE
STARLINK-1350 4.1 23:01:49 12° W 23:05:08 53° NNW 23:08:52 10° ENE
STARLINK-1237 3.6 23:03:54 10° WNW 23:07:59 57° SSW 23:12:03 10° SE
Cosmos 468 Rocket 4.2 23:05:31 25° SW 23:08:25 63° WNW 23:13:32 10° NNE
Cosmos 1953 Rocket 3.9 23:06:09 24° S 23:08:45 63° E 23:13:08 10° NNE
Lacrosse 4 Rocket 1.4 23:04:49 10° NW 23:09:06 62° WSW 23:11:39 22° SSE
Cosmos 2263 Rocket 3.5 23:03:51 10° NNW 23:09:09 41° NE 23:14:24 10° ESE
Cosmos 1455 2.6 23:08:03 10° NNW 23:11:39 45° W 23:12:54 32° SW
Meteor 2-10 Rocket 3.8 23:06:57 10° NNW 23:11:58 49° W 23:14:39 25° SSW
STARLINK-1368 4.2 23:08:27 10° W 23:12:05 50° NNW 23:15:48 10° ENE
STARLINK-1202 3.7 23:08:54 10° WNW 23:12:57 53° SW 23:16:59 10° SE
Cosmos 1937 Rocket 3.7 23:09:12 10° NNW 23:14:19 55° WSW 23:17:40 21° S
Cosmos 2082 3.8 23:09:19 10° NW 23:14:50 55° WSW 23:18:47 19° S
Cosmos 1898 Rocket 4.1 23:10:01 10° NW 23:14:59 40° WSW 23:17:36 24° SSW
STARLINK-1369 4.3 23:11:53 10° W 23:15:35 49° NNW 23:19:17 10° ENE
AQUA 4.3 23:12:48 10° NNE 23:17:30 55° E 23:20:51 19° S
Cosmos 540 Rocket 3.5 23:14:56 24° S 23:18:05 73° ESE 23:23:13 10° NNE
STARLINK-1372 4.3 23:15:24 10° W 23:19:04 48° NNW 23:22:46 10° ENE
Starlink 7 placeholder 4.0 23:19:09 10° NW 23:20:55 27° NNE 23:22:42 10° E
Cosmos 2181 Rocket 4.1 23:14:39 10° NNW 23:21:05 72° W 23:26:09 17° S
STARLINK-1378 4.4 23:18:54 10° W 23:22:36 47° NNW 23:26:17 10° ENE
STARLINK-1246 3.8 23:18:54 10° WNW 23:22:53 46° SW 23:26:51 10° SE
STARLINK-55 4.1 23:22:37 26° SSE 23:23:17 29° SE 23:26:06 10° E
SL-16 R/B 2.5 23:19:18 16° S 23:24:14 67° WSW 23:30:25 10° NNW
Cosmos 2322 Rocket 4.3 23:20:40 10° SE 23:24:17 18° E 23:27:54 10° ENE
STARLINK-41 4.3 23:24:14 23° SSE 23:24:51 24° SE 23:27:29 10° E
CZ-4B R/B 3.8 23:19:59 10° NNE 23:25:12 69° ESE 23:29:08 18° S
Cosmos 2278 3.7 23:21:32 22° SSW 23:25:16 78° ESE 23:30:58 10° NNE
STARLINK-1379 4.4 23:22:26 10° W 23:26:07 46° NNW 23:29:48 10° ENE
CZ-4C R/B 3.9 23:24:34 24° SSW 23:26:53 49° W 23:31:13 10° NNW
STARLINK-1329 4.4 23:23:54 10° W 23:27:35 45° NNW 23:31:16 10° ENE
STARLINK-1224 3.9 23:23:54 10° WNW 23:27:50 43° SW 23:31:45 10° SE
Cosmos 1315 Rocket 4.3 23:26:26 10° N 23:30:04 35° ENE 23:33:41 10° SE
Cosmos-2242 3.4 23:26:13 10° NNW 23:30:17 45° W 23:32:29 24° SSW
NPP 3.7 23:25:33 10° NNE 23:30:59 88° ESE 23:34:58 19° SSW
STARLINK-1362 4.5 23:27:29 10° W 23:31:10 45° N 23:34:51 10° ENE
USA 229 DEB 4.4 23:24:02 10° NW 23:31:10 62° NE 23:38:40 10° ESE
USA 229 4.4 23:24:07 10° NW 23:31:16 62° NE 23:38:45 10° ESE
ATLAS CENTAUR R/B 3.1 23:29:21 10° W 23:32:09 25° SW 23:37:25 10° SSE
Cosmos 2221 3.6 23:28:34 10° N 23:32:45 44° ENE 23:36:56 10° SSE
STARLINK-1225 4.0 23:28:55 10° WNW 23:32:48 39° SW 23:36:40 10° SSE
STARLINK-28 3.7 23:33:02 28° S 23:34:05 37° SE 23:37:05 10° ENE
NOSS 3-1 (C) 4.4 23:27:50 10° NW 23:35:09 70° NE 23:43:39 10° SE
Cosmos 2084 Rocket 3.5 23:31:25 10° NW 23:35:54 81° SW 23:40:24 10° SE
Cosmos 1697 Rocket 3.0 23:32:47 19° SW 23:36:49 61° WNW 23:42:28 10° NNE
Cosmos 1814 Rocket 4.0 23:33:35 21° SSW 23:37:18 87° WNW 23:42:40 10° NNE
STARLINK-1230 4.1 23:33:55 10° WNW 23:37:45 37° SW 23:41:34 10° SSE
Cosmos 1570 Rocket 4.2 23:35:09 20° SW 23:38:48 66° WNW 23:44:04 10° NNE
Cosmos 2227 4.5 23:33:12 10° NNW 23:38:58 74° ENE 23:44:44 10° SE
Cosmos 2298 Rocket 4.0 23:35:30 10° NNW 23:40:50 83° WSW 23:46:09 10° SSE
BREEZE-M R/B 2.7 23:36:31 10° W 23:41:16 73° N 23:44:02 10° ENE
Cosmos 2227 Rocket 3.6 23:37:09 10° NW 23:41:18 21° W 23:43:29 17° SW
STARLINK-1283 4.4 23:40:41 21° S 23:42:38 34° SE 23:46:12 10° ENE
STARLINK-1317 4.4 23:40:57 21° S 23:42:38 30° SE 23:45:54 10° ENE
STARLINK-1243 4.2 23:38:57 10° WNW 23:42:43 34° SW 23:46:28 10° SSE
Cosmos 372 Rocket 3.9 23:37:50 10° NNW 23:42:55 67° WSW 23:48:02 10° S
CRYOSAT 2 4.4 23:39:58 10° N 23:44:54 82° E 23:49:13 13° S
Cosmos 1125 Rocket 3.9 23:39:44 10° NNW 23:44:56 64° ENE 23:50:05 10° SSE
Cosmos 1825 Rocket 4.4 23:44:53 19° SW 23:47:27 36° WNW 23:51:29 10° N
STARLINK-1236 4.3 23:43:57 10° WNW 23:47:38 31° SW 23:51:19 10° SSE
Cosmos 2208 Rocket 4.2 23:47:08 18° SW 23:51:01 62° WNW 23:56:21 10° NNE
STARLINK-1311 3.8 23:50:23 22° S 23:51:38 32° SE 23:54:21 10° ENE
STARLINK-33 3.4 23:50:57 23° SSW 23:52:36 46° SE 23:55:42 10° ENE
STARLINK 1040 2.5 23:55:45 20° WSW 23:57:21 71° NNW 23:59:55 10° ENE
